Weather History for North Myrtle Beach, SC

Change the Weather History Date:

Thursday, February 28, 2013

  Actual Average Record
Temperature  
Mean Temperature 50 °F 50 °F  
Max Temperature 58 °F 60 °F 79 °F (1955)
Min Temperature 42 °F 41 °F 22 °F (2002)
Degree Days  
Heating Degree Days 15 15  
Month to date heating degree days 492 478  
Since 1 July heating degree days 1781 1944  
Cooling Degree Days 0 0  
Month to date cooling degree days 0 0  
Year to date cooling degree days 2 0  
Growing Degree Days 1 (Base 50)    
Moisture  
Dew Point 34 °F    
Average Humidity 59    
Maximum Humidity 83    
Minimum Humidity 35    
Precipitation  
Precipitation 0.00 in 0.11 in 0.38 in (2009)
Month to date precipitation 4.42 3.42  
Year to date precipitation 5.06 7.11  
Sea Level Pressure  
Sea Level Pressure 29.81 in    
Wind  
Wind Speed 8 mph (West)    
Max Wind Speed 17 mph    
Max Gust Speed 26 mph    
Visibility 10 miles    
Events      
T = Trace of Precipitation, MM = Missing Value Source: NWS Daily Summary

Daily Weather History Graph

Daily Weather History Graph

Search for Another Location

Airport:

Trip Planner

Search our weather history database for the weather conditions in past years. The results will help you decide how hot, cold, wet, or windy it might be!

Date:

Astronomy

Feb. 28, 2013 Rise Set
Actual Time 6:44 AM EST 6:10 PM EST
Civil Twilight 6:19 AM EST 6:35 PM EST
Nautical Twilight 5:50 AM EST 7:04 PM EST
Astronomical Twilight 5:21 AM EST 7:33 PM EST
Moon 9:23 PM EST (2/28) 8:03 AM EST (2/28)
Length of Visible Light 12h 16m
Length of Day
11h 26m
Waning Gibbous, 91% of the Moon is Illuminated
Feb 28
Waning Gibbous
Mar 4
Last Quarter
Mar 11
New
Mar 19
First Quarter
Mar 27
Full

Hourly Weather History & Observations

Time (EST) Temp. Windchill Dew Point Humidity Pressure Visibility Wind Dir Wind Speed Gust Speed Precip Events Conditions
12:53 AM 50.0 °F - 39.9 °F 68% 29.80 in 10.0 mi WSW 11.5 mph - N/A   Clear
1:53 AM 48.9 °F - 39.9 °F 71% 29.78 in 10.0 mi WSW 11.5 mph 18.4 mph N/A   Clear
2:53 AM 48.0 °F - 39.9 °F 74% 29.78 in 10.0 mi West 9.2 mph - N/A   Clear
4:53 AM 45.0 °F 41.2 °F 39.0 °F 80% 29.79 in 10.0 mi West 6.9 mph - N/A   Clear
5:53 AM 45.0 °F 41.8 °F 39.0 °F 80% 29.80 in 10.0 mi WSW 5.8 mph - N/A   Clear
7:53 AM 46.9 °F - 39.9 °F 77% 29.82 in 10.0 mi WSW 8.1 mph - N/A   Clear
9:53 AM 54.0 °F - 36.0 °F 51% 29.81 in 10.0 mi West 11.5 mph 23.0 mph N/A   Partly Cloudy
10:53 AM 54.0 °F - 32.0 °F 43% 29.80 in 10.0 mi West 12.7 mph 21.9 mph N/A   Clear
11:53 AM 55.9 °F - 32.0 °F 40% 29.78 in 10.0 mi WSW 13.8 mph 23.0 mph N/A   Clear
12:53 PM 55.9 °F - 32.0 °F 40% 29.76 in 10.0 mi WNW 12.7 mph 19.6 mph N/A   Partly Cloudy
1:53 PM 57.9 °F - 32.0 °F 37% 29.75 in 10.0 mi West 11.5 mph 17.3 mph N/A   Scattered Clouds
2:53 PM 55.9 °F - 30.9 °F 39% 29.75 in 10.0 mi NW 9.2 mph 18.4 mph N/A   Mostly Cloudy
4:53 PM 55.9 °F - 28.9 °F 36% 29.77 in 10.0 mi WNW 11.5 mph 19.6 mph N/A   Mostly Cloudy
5:53 PM 53.1 °F - 30.9 °F 43% 29.80 in 10.0 mi Variable 3.5 mph - N/A   Overcast
6:53 PM 51.1 °F - 32.0 °F 48% 29.83 in 10.0 mi NNW 3.5 mph - N/A   Overcast
7:53 PM 50.0 °F - 32.0 °F 50% 29.86 in 10.0 mi Calm Calm - N/A   Mostly Cloudy
8:53 PM 45.0 °F - 36.0 °F 71% 29.86 in 10.0 mi Calm Calm - N/A   Mostly Cloudy
9:53 PM 46.0 °F 43.9 °F 33.1 °F 61% 29.87 in 10.0 mi NNW 4.6 mph - N/A   Clear
10:53 PM 46.0 °F - 32.0 °F 58% 29.87 in 10.0 mi Calm Calm - N/A   Clear
11:53 PM 45.0 °F 43.5 °F 32.0 °F 60% 29.86 in 10.0 mi NW 3.5 mph - N/A   Clear